SCP
2 2 2 2 2 2 3 3 3 3 3 3 3 3 3 3 2 2 2 2 2 2 2 2 2 2 2 2 2 2 2 2 2 2 2 2 2 2 2 2 2 2 2
2 2 2 2 2 2 2 2 2 2 2 3 3 4 3 3 2 2 1 2 2 2 2 2 2 2 2 2 2 2 2 2 2 2 2 2 2 2 2 2 2 2 2
2 2 2 2 2 2 2 2 2 2 2 3 3 4 3 2 2 1 1 1 1 2 2 2 2 2 2 2 2 2 2 2 2 2 2 2 2 2 2 2 2 2 2
2 2 2 2 2 1 1 1 2 2 2 3 3 4 3 1 1 1 1 1 1 1 2 2 2 2 2 2 2 1 1 1 1 2 2 2 2 2 2 2 2 2 2
2 2 2 2 2 2 1 2 2 2 2 2 3 3 2 1 1 1 1 1 1 1 1 1 2 2 2 2 1 1 1 1 2 2 2 2 2 2 2 2 2 2 2
2 2 2 2 2 2 2 2 2 2 2 2 2 2 1 1 1 1 1 1 1 1 1 1 1 2 1 1 1 1 2 2 2 2 2 2 2 2 2 2 2 1 1
2 2 2 2 2 2 2 2 2 2 2 2 2 1 1 1 0 1 1 1 1 1 1 1 1 1 1 1 1 2 2 2 2 2 2 2 2 2 2 2 1 1 1
2 2 2 2 2 2 2 2 2 2 2 2 2 2 1 1 0 0 1 1 1 1 1 1 1 1 1 1 1 2 2 2 2 1 1 2 2 2 2 2 2 1 1
2 2 2 2 2 2 2 2 2 2 2 2 2 2 1 1 0 0 0 0 0 0 0 1 1 1 1 1 2 2 2 1 1 1 1 1 2 2 2 2 2 2 1
2 2 2 2 2 2 2 2 2 2 2 2 1 1 1 0 0 0 0 0 0 0 0 0 1 1 1 1 1 1 1 1 1 1 1 1 1 1 1 2 2 2 2
1 1 1 1 2 2 2 2 2 2 2 2 1 1 1 0 0 0 0 0 0 0 0 0 0 1 1 1 1 1 1 1 0 1 1 1 1 1 1 1 2 2 2
1 1 1 1 1 1 1 1 2 2 2 2 2 1 1 0 0 0 0 0 0 0 0 0 0 0 1 1 1 0 0 0 0 0 0 1 1 1 1 1 1 2 2
1 1 1 1 1 1 1 1 1 2 2 2 2 1 1 0 0 1 1 0 0 0 0 0 0 0 0 0 0 0 0 0 0 0 0 0 1 1 1 1 1 1 1
1 1 1 1 1 1 1 1 1 1 1 2 2 2 1 1 1 1 1 1 0 0 0 0 0 0 0 0 0 0 0 0 0 1 1 1 1 1 1 1 1 1 1
1 1 1 2 2 1 1 1 1 1 1 1 1 1 1 1 1 1 1 1 0 0 0 0 0 0 0 0 0 0 0 0 0 0 1 1 1 1 1 1 1 1 1
1 1 2 2 2 1 1 1 1 1 1 1 1 1 1 1 1 0 0 1 0 0 0 0 0 0 0 0 0 0 0 0 0 0 1 1 1 0 0 0 0 0 0
1 1 1 2 2 2 1 1 1 1 1 1 1 1 1 1 0 0 0 0 0 0 0 0 0 0 0 0 0 0 0 0 0 0 0 1 1 0 0 0 0 0 0
1 1 1 2 2 2 2 1 1 1 1 1 1 1 1 0 0 0 0 0 0 0 0 0 0 0 0 0 0 0 0 0 0 0 0 0 0 0 0 0 0 0 0
1 1 2 2 2 2 2 1 1 1 1 1 0 0 0 0 0 0 0 0 0 0 0 0 0 0 0 0 0 0 0 0 0 0 0 0 0 0 0 0 0 0 0
1 1 2 2 2 2 2 1 1 1 1 1 0 0 0 0 0 0 0 0 0 0 0 0 0 0 0 0 0 0 0 0 0 0 0 0 0 0 0 0 0 0 0
1 1 1 2 2 2 1 1 1 1 1 1 0 0 0 0 0 0 0 0 0 0 0 0 0 0 0 0 0 0 0 0 0 0 0 0 0 0 0 0 0 0 0
1 1 1 2 2 1 1 1 1 1 1 0 0 0 0 0 0 0 0 0 0 0 0 0 0 0 0 0 0 0 0 0 0 0 0 0 0 0 0 0 0 0 0
1 1 1 2 2 1 0 0 1 1 0 0 0 0 0 0 0 0 0 0 0 0 0 0 0 0 0 0 0 0 0 0 0 0 0 0 0 0 0 0 0 0 0
1 1 2 2 2 1 0 0 0 0 0 0 0 0 0 0 0 0 0 0 0 0 0 0 0 0 0 0 0 0 0 0 0 0 0 0 0 0 0 0 0 0 0
1 1 1 1 1 0 0 0 0 0 0 0 0 0 0 0 0 0 0 0 0 0 0 0 0 0 0 0 0 0 0 0 0 0 0 0 0 0 0 0 0 0 0
1 1 1 1 0 0 0 0 0 0 0 0 0 0 0 0 0 0 0 0 0 0 0 0 0 0 0 0 0 0 0 0 0 0 0 0 0 0 0 0 0 0 0
Wind_Speed
2 1 1 1 1 1 1 1 2 2 2 3 3 3 3 4 3 3 3 7 7 7 8 9 9 9 10 10 10 11 12 12 13 13 12 12 13 13 12 13 13 13 13
1 1 1 1 1 1 1 2 2 2 2 2 3 3 3 4 3 3 3 4 6 7 7 8 8 8 9 10 10 10 10 12 12 12 13 13 13 13 13 13 13 14 14
2 1 1 1 2 1 1 1 2 2 2 2 3 3 3 3 3 4 3 3 3 5 6 6 6 7 8 9 10 10 11 11 12 12 12 13 13 13 13 13 13 13 14
2 1 1 1 1 1 1 1 1 1 2 2 2 2 2 2 3 3 3 3 2 2 4 5 6 7 8 9 10 10 11 11 12 13 13 13 13 13 13 13 13 13 14
1 1 1 1 1 1 1 1 1 1 2 2 2 2 2 2 3 3 3 3 2 2 2 3 5 6 7 8 9 10 12 12 12 12 12 13 13 13 13 13 13 14 14
1 1 1 1 1 1 1 1 1 1 1 1 2 2 2 2 2 2 3 2 2 3 2 3 3 4 6 7 7 9 11 12 12 12 13 13 13 12 12 13 13 14 14
1 1 1 1 1 1 2 2 1 1 1 0 0 2 2 1 1 2 2 2 2 2 2 3 3 3 3 7 7 8 9 10 11 11 11 11 12 11 12 12 13 13 14
1 2 2 2 2 1 2 1 1 1 1 0 1 0 2 2 2 2 1 2 2 2 2 3 3 3 3 3 4 7 7 8 9 9 10 9 10 11 12 12 13 13 13
2 2 3 2 2 2 2 2 2 3 1 1 1 1 1 2 2 2 2 2 2 2 3 2 3 3 4 3 3 6 7 6 7 9 9 9 9 11 12 12 13 13 13
2 2 3 3 2 2 2 3 2 2 2 1 1 1 2 2 1 2 2 2 3 3 3 3 3 3 4 3 4 6 7 7 8 9 9 9 9 10 12 13 13 14 14
2 2 2 2 2 2 3 2 2 2 2 2 2 1 1 1 1 2 3 3 3 3 3 3 2 3 3 4 4 5 7 7 8 9 10 10 10 10 11 13 14 14 14
2 2 2 2 2 2 2 2 2 2 2 3 2 2 2 2 2 3 3 3 3 3 3 2 2 3 3 3 5 6 6 7 7 8 9 9 10 10 10 11 13 14 13
2 3 2 2 2 2 2 2 2 2 2 3 3 2 3 3 2 2 2 2 2 2 2 2 3 2 3 2 3 5 6 7 7 8 8 9 10 11 11 11 12 13 13
3 3 2 2 2 2 2 1 1 2 2 2 3 3 2 2 2 3 3 2 2 2 2 3 2 2 2 2 4 5 4 7 7 8 9 10 11 11 11 11 11 11 11
2 2 2 2 2 1 1 1 1 2 2 2 2 2 2 2 2 2 3 3 2 2 3 3 2 3 2 2 4 4 4 6 8 8 9 9 10 10 11 11 11 11 11
2 2 2 2 2 1 1 1 1 2 1 1 1 2 2 2 1 1 2 2 3 3 3 2 3 3 3 3 4 4 4 7 8 8 8 8 9 9 9 10 11 11 11
2 2 2 1 1 1 1 1 1 1 1 1 1 1 1 1 1 1 1 2 2 3 3 3 3 3 3 3 4 3 3 4 4 6 7 7 8 8 8 9 9 9 10
2 1 1 1 1 1 1 0 1 1 1 1 2 1 1 1 1 1 1 2 2 3 3 4 3 2 3 3 4 4 3 3 3 5 6 6 6 7 8 9 8 9 9
2 2 1 1 1 1 1 1 1 1 1 1 2 2 2 1 1 1 1 1 1 2 2 3 3 2 2 2 3 3 3 3 3 4 4 4 5 6 7 7 8 8 9
2 2 2 1 1 1 1 1 0 1 1 1 2 2 2 2 2 2 1 2 1 1 2 2 2 2 2 2 2 3 3 3 3 3 4 4 4 4 5 6 7 8 9
2 2 2 2 1 1 1 1 1 0 0 1 1 1 2 1 1 1 1 1 1 1 2 2 2 2 2 2 2 2 3 3 3 2 3 3 2 2 3 4 5 7 7
2 2 2 1 2 1 2 1 1 1 1 0 1 2 2 2 2 2 2 2 2 3 3 2 2 3 4 3 2 2 2 2 3 2 2 3 2 3 2 2 3 5 5
2 2 2 1 1 2 2 2 1 1 1 0 1 1 1 2 2 2 3 4 3 3 4 4 4 4 4 3 3 3 3 3 3 2 1 3 2 3 3 2 3 4 5
1 1 1 1 1 3 3 2 1 1 1 1 1 1 1 3 3 2 2 3 3 3 3 2 3 4 4 4 3 3 3 3 3 3 2 3 3 3 3 3 3 4 4
1 1 1 1 1 3 4 3 1 1 1 2 2 2 2 2 4 3 2 3 4 4 3 3 3 3 3 3 2 1 1 2 3 2 2 2 2 3 3 3 3 4 4
1 1 1 1 1 3 4 3 1 0 1 2 2 3 3 3 3 3 1 2 3 4 4 4 3 3 3 2 2 2 2 2 2 2 1 2 2 2 2 2 2 2 2
Wind_Direction
213 216 229 247 265 265 261 265 268 270 270 265 251 244 243 236 230 234 250 255 253 253 252 252 252 248 239 232 228 229 226 222 219 217 215 213 213 213 212 213 212 211 209
198 211 229 258 269 261 254 253 258 260 264 261 259 254 249 243 232 235 239 256 256 256 256 254 251 249 246 236 228 228 230 228 223 221 219 215 214 215 214 214 215 215 214
191 194 220 243 261 264 261 265 272 268 266 268 267 260 250 245 239 238 241 244 251 254 256 253 250 248 246 240 233 231 229 231 227 224 223 221 219 216 215 215 216 216 216
199 186 214 249 257 252 248 249 261 270 267 266 265 262 257 251 248 243 239 239 240 251 258 257 256 252 248 244 240 235 232 233 234 227 223 224 223 221 217 216 218 218 218
199 181 217 254 252 241 251 255 248 246 254 263 265 260 253 250 252 252 244 240 238 238 253 268 266 263 253 246 244 244 239 234 236 233 227 224 224 222 221 220 221 221 220
198 187 220 262 251 244 273 270 274 266 255 262 277 288 277 262 244 240 241 245 246 241 244 258 265 273 266 257 249 248 243 237 233 233 231 228 225 222 220 221 223 222 220
200 195 237 257 245 230 243 241 231 251 268 264 20 313 306 282 251 241 239 244 250 251 248 250 254 253 268 265 257 255 248 239 234 232 233 233 227 225 223 223 224 222 220
235 222 220 234 230 230 254 243 215 202 243 139 151 76 322 325 307 275 256 242 247 253 254 255 252 248 256 259 261 260 255 246 242 236 233 236 232 228 227 225 225 225 222
260 239 228 229 229 214 227 232 206 193 209 233 170 160 169 256 304 304 278 271 268 254 258 262 259 260 254 250 254 258 260 253 247 246 239 235 235 231 229 229 227 226 223
282 254 235 226 222 219 226 234 206 199 184 215 247 216 202 196 222 296 303 288 276 265 260 261 265 261 257 252 251 254 255 251 246 249 247 242 239 237 232 230 231 230 227
291 276 248 233 233 232 232 229 213 198 191 201 205 204 206 207 200 228 280 294 290 271 261 260 264 265 261 252 253 256 257 253 248 249 248 245 243 242 242 235 231 231 228
300 299 273 248 245 245 241 237 223 211 207 210 212 206 203 209 211 212 245 273 283 289 284 267 261 261 257 253 259 267 263 260 252 247 248 248 246 242 243 243 235 231 229
292 292 287 269 263 260 254 237 226 231 214 211 220 221 219 228 218 211 231 261 274 287 286 272 260 265 269 269 268 277 274 270 261 252 249 247 246 241 238 242 244 236 232
269 280 282 272 259 254 256 237 236 242 225 225 231 224 227 235 221 214 213 222 274 285 278 275 280 268 275 277 276 281 275 272 266 258 250 247 244 239 235 235 241 241 234
276 286 281 273 275 272 263 245 246 254 237 230 233 232 234 242 228 228 219 210 210 257 276 270 275 282 282 271 275 277 274 275 271 264 254 247 243 238 237 234 234 238 232
293 299 305 301 303 297 277 246 252 252 228 241 234 233 244 253 247 240 224 219 212 215 251 259 253 275 287 281 282 276 273 277 271 267 259 250 244 236 236 237 234 235 229
299 285 280 286 295 295 284 247 264 266 239 264 255 217 249 252 245 249 237 225 220 211 239 271 261 273 275 286 298 290 283 277 277 270 261 253 243 235 234 236 233 233 231
316 308 309 310 300 300 289 232 266 282 234 250 267 269 276 261 257 258 241 241 233 223 227 260 278 281 273 281 293 297 302 296 287 285 272 260 242 236 234 235 233 232 231
340 352 352 322 305 304 285 245 221 247 241 246 252 250 258 248 269 277 265 257 258 249 232 244 275 281 275 285 300 304 306 304 304 300 289 275 255 242 235 235 233 231 230
352 346 342 323 319 332 327 283 224 240 279 288 273 258 250 237 246 253 251 250 247 261 263 258 266 275 274 281 282 293 306 310 304 309 312 305 287 260 247 242 240 237 232
337 327 338 347 354 6 329 280 230 217 297 310 309 293 269 258 247 246 244 241 229 241 252 254 261 270 275 277 274 276 285 300 293 288 296 296 284 274 264 254 248 242 233
327 341 344 346 2 354 354 4 110 76 44 5 323 324 330 338 336 329 311 290 248 239 248 247 252 258 268 263 263 261 267 287 290 284 282 287 279 273 272 262 257 251 239
323 333 334 355 355 333 339 348 54 107 101 285 289 312 325 332 341 340 341 337 317 289 250 233 244 254 256 253 252 259 251 254 264 286 280 282 282 276 276 281 268 259 249
317 311 323 334 338 329 332 333 7 70 37 335 300 281 294 316 327 332 333 334 323 310 284 257 242 255 259 260 244 248 256 260 270 271 252 272 286 282 284 279 275 271 263
321 321 324 331 332 320 332 339 2 28 356 326 317 315 306 307 314 331 344 329 322 315 313 298 269 268 275 276 252 235 259 267 284 279 224 246 277 289 285 277 277 269 263
298 323 332 317 306 305 320 330 338 345 319 312 321 319 316 309 311 328 316 303 305 305 314 320 317 310 297 292 273 234 236 249 269 276 240 243 274 294 295 285 288 288 280